Flag for U.S.A. Weather past 2 weeks in Visalia, California, U.S.A.

Now
55 °F

Clear.


Feels Like: 55 °F
Forecast: 51 / 83 °F
Wind: 5 mph from Southeast

Location: Visalia Municipal

Current Time: Oct 24, 2014 at 12:59:28 AM

Latest Report: Oct 24, 2014 at 12:35 AM


Visibility: 10 mi

Pressure: 30.00 "Hg

Humidity: 67%

Dew point: 45 °F

Location of VisaliaLocation

Historic Weather in Visalia — Graph

°F

Visalia temperature yesterday

Maximum temperature yesterday: 79 °F (at 2:55 PM)
Minimum temperature yesterday: 48 °F (at 5:35 AM)
Average temperature yesterday: 62 °F

Past Weeks' High & Low Weather Summary

 TemperatureHumidityPressure
High91 °F (Oct 9, 3:15 PM)77% (Oct 12, 7:15 AM)30.10 "Hg (Oct 12, 7:15 AM)
Low46 °F (Oct 22, 5:15 AM)13% (Oct 9, 4:55 PM)29.76 "Hg (Oct 14, 4:15 PM)
Average67 °F54%29.95 "Hg
* Reported Oct 8 11:35 PM — Oct 23 11:55 PM, Visalia, Weather by CustomWeather, © 2014

Note: Actual official high and low records may vary slightly from our data, if they occured in-between our weather recording intervals... More about our weather records

Advertising

Visalia weather history for previous 24 hours

 ConditionsComfort  
Time TempWeatherWind HumidityBarometerVisibility
11:55 PM
Oct 23
57 °FClear.No wind67%30.00 "Hg10 mi
11:35 PM55 °FClear.No wind67%30.00 "Hg10 mi
11:15 PM59 °FClear.3 mph63%30.00 "Hg10 mi
10:55 PM57 °FClear.No wind63%29.99 "Hg10 mi
10:35 PM57 °FClear.No wind63%29.99 "Hg10 mi
10:15 PM61 °FClear.No wind59%29.99 "Hg10 mi
9:55 PM61 °FClear.No wind55%29.99 "Hg10 mi
9:35 PM61 °FClear.No wind59%29.98 "Hg10 mi
9:15 PM63 °FClear.No wind56%29.98 "Hg10 mi
8:55 PM63 °FClear.No wind59%29.98 "Hg10 mi
8:35 PM63 °FClear.No wind56%29.98 "Hg10 mi
8:15 PM63 °FClear.No wind56%29.98 "Hg10 mi
7:55 PM64 °FClear.No wind56%29.98 "Hg10 mi
7:35 PM64 °FClear.No wind52%29.98 "Hg10 mi
7:15 PM70 °FClear.No wind43%29.97 "Hg10 mi
6:55 PM72 °FSunny.No wind44%29.98 "Hg10 mi
6:35 PM72 °FSunny.3 mph44%29.98 "Hg10 mi
6:15 PM73 °FSunny.3 mph41%29.97 "Hg10 mi
5:55 PM75 °FSunny.No wind41%29.97 "Hg10 mi
5:35 PM75 °FSunny.3 mph44%29.97 "Hg10 mi
4:55 PM77 °FSunny.6 mph42%29.98 "Hg10 mi
4:35 PM77 °FSunny.5 mph39%29.98 "Hg10 mi
4:15 PM77 °FSunny.5 mph42%29.98 "Hg10 mi
3:55 PM77 °FSunny.3 mph42%29.99 "Hg10 mi
3:35 PM77 °FSunny.No wind42%29.99 "Hg10 mi
3:15 PM75 °FSunny.5 mph41%29.99 "Hg10 mi
2:55 PM79 °FSunny.5 mph39%30.00 "Hg10 mi
2:35 PM75 °FSunny.3 mph41%30.00 "Hg10 mi
1:55 PM75 °FSunny.6 mph44%30.02 "Hg10 mi
1:35 PM75 °FSunny.3 mph41%30.03 "Hg10 mi
1:15 PM75 °FSunny.No wind41%30.04 "Hg10 mi
12:55 PM75 °FSunny.5 mph41%30.05 "Hg10 mi
12:35 PM73 °FSunny.3 mph44%30.06 "Hg10 mi
12:15 PM72 °FSunny.No wind47%30.07 "Hg10 mi
11:55 AM72 °FSunny.3 mph44%30.07 "Hg9 mi
11:35 AM72 °FSunny.3 mph47%30.08 "Hg10 mi
10:55 AM66 °FSunny.No wind60%30.09 "Hg10 mi
10:35 AM64 °FSunny.No wind60%30.09 "Hg10 mi
10:15 AM64 °FSunny.No wind56%30.08 "Hg9 mi
9:55 AM63 °FSunny.No wind59%30.09 "Hg8 mi
9:35 AM61 °FSunny.No wind63%30.08 "Hg5 mi
9:15 AM59 °FSunny.No wind63%30.08 "Hg10 mi
8:55 AM57 °FSunny.No wind67%30.07 "Hg10 mi
8:35 AM55 °FSunny.No wind67%30.06 "Hg10 mi
8:15 AM54 °FSunny.No wind72%30.05 "Hg10 mi
7:55 AM52 °FClear.No wind72%30.05 "Hg10 mi
7:35 AM50 °FClear.No wind71%30.04 "Hg10 mi
7:15 AM52 °FClear.3 mph72%30.03 "Hg10 mi
6:55 AM50 °FClear.No wind71%30.03 "Hg10 mi
6:35 AM48 °FClear.No wind76%30.02 "Hg10 mi
5:55 AM48 °FClear.No wind76%30.02 "Hg10 mi
5:35 AM48 °FClear.3 mph71%30.02 "Hg10 mi
5:15 AM52 °FClear.No wind72%30.02 "Hg10 mi
4:55 AM50 °FClear.No wind71%30.02 "Hg10 mi
4:35 AM52 °FClear.No wind72%30.01 "Hg10 mi
4:15 AM52 °FClear.No wind72%30.01 "Hg10 mi
3:55 AM52 °FClear.No wind72%30.01 "Hg10 mi
3:35 AM52 °FClear.No wind72%30.02 "Hg10 mi
3:15 AM52 °FClear.No wind72%30.03 "Hg10 mi
2:55 AM52 °FClear.No wind67%30.04 "Hg10 mi
2:35 AM54 °FClear.No wind67%30.04 "Hg10 mi
2:15 AM55 °FClear.No wind67%30.04 "Hg10 mi
1:55 AM55 °FClear.No wind67%30.04 "Hg10 mi
1:35 AM55 °FClear.No wind67%30.05 "Hg10 mi
12:55 AM55 °FClear.3 mph67%30.05 "Hg10 mi
12:35 AM57 °FClear.5 mph67%30.05 "Hg10 mi
12:15 AM55 °FClear.3 mph63%30.05 "Hg10 mi
Weather by CustomWeather, © 2014

See weather overviewHow to use our weather pages